Regional Weather Roundup
Issued by NWS Wilmington, NC

Home | Current Version | Previous Version | Text Only | Print | Product List | Glossary On
Versions: 1 2 3 4 5 6 7 8 9 10 11 12 13 14 15 16 17 18 19 20 21 22 23 24 25 26 27
000
ASUS42 KILM 201813
RWRILM
RWRILM
REGIONAL HOURLY WEATHER ROUNDUP
NATIONAL WEATHER SERVICE WILMINGTON NC
200 PM EDT SUN AUG 20 2017

NOTE: "FAIR" INDICATES FEW OR NO CLOUDS BELOW 12,000 FEET WITH NO
SIGNIFICANT WEATHER AND/OR OBSTRUCTIONS TO VISIBILITY.

...............WFO WILMINGTON COUNTY WARNING AREA...............

......COASTAL NC AND SC COUNTIES......

CITY           SKY/WX    TMP DP  RH WIND       PRES   REMARKS
WILMINGTON     MOSUNNY   90  74  59 E3        30.08S HX  99
N MYRTLE BEACH SUNNY     87  78  74 S7        30.08F HX 100
MYRTLE BEACH   MOSUNNY   90  77  66 MISG      30.08F HX 102

......INLAND NC AND SC COUNTIES.......

CITY           SKY/WX    TMP DP  RH WIND       PRES   REMARKS
LUMBERTON      MOSUNNY   91  74  57 SE7       30.08F HX 100
ELIZABETHTOWN  NOT AVBL
WHITEVILLE     MOSUNNY   90  73  57 E7        30.08F HX  98
FLORENCE       PTSUNNY   92  70  48 SE7       30.08F HX  97
DARLINGTON     SUNNY     92  71  50 CALM      30.09F HX  98
KINGSTREE      FAIR      91  70  49 CALM      30.07F HX  97
HARTSVILLE     PTSUNNY   93  72  49 SE5       30.08F HX 100
BENNETTSVILLE  PTSUNNY   95  70  43 E7        30.08F HX 101
CONWAY         FAIR      91  72  52 NW3       30.07F HAZE    HX  98
GEORGETOWN     FAIR      91  73  55 SE7       30.08S HX 100
MARION         FAIR      91  70  49 NE5       30.08S HX  97

....................REST OF NORTH CAROLINA......................

.........EASTERN NC.........

CITY           SKY/WX    TMP DP  RH WIND       PRES   REMARKS
CAPE HATTERAS  CLOUDY    86  77  74 CALM      30.10S HX  97
JACKSONVILLE   MOSUNNY   89  73  59 NE3       30.10S HX  97
MOREHEAD CITY  PTSUNNY   85  79  82 SE6       30.10S HX  98
KENANSVILLE    PTSUNNY   91  70  49 NW6       30.09F HX  97
NEW BERN       MOSUNNY   88  74  63 E6        30.10F HX  96
ELIZABETH CITY SUNNY     89  75  63 E8        30.10S HX  99

.........CENTRAL NC.........

CITY           SKY/WX    TMP DP  RH WIND       PRES   REMARKS
RALEIGH DURHAM PTSUNNY   94  69  44 W5        30.11F HX  99
ROCKY MOUNT    SUNNY     92  67  43 VRB5      30.10S HX  95
ROANOKE RAPIDS NOT AVBL
FAYETTEVILLE   MOSUNNY   93  69  45 NE6       30.08F HX  98
HOFFMAN        MOSUNNY   94  67  41 N5        30.08F HX  97

.........WESTERN NC.........

CITY           SKY/WX    TMP DP  RH WIND       PRES   REMARKS
CHARLOTTE      MOSUNNY   91  68  46 SE6       30.12F HX  95
GREENSBORO     MOSUNNY   89  66  46 CALM      30.13F HX  91
HICKORY        NOT AVBL
BOONE          NOT AVBL
ASHEVILLE      NOT AVBL

.....................REST OF SOUTH CAROLINA.....................

.........EASTERN SC.........

CITY           SKY/WX    TMP DP  RH WIND       PRES   REMARKS
CHARLESTON     MOSUNNY   92  76  59 VRB5      30.06F HX 104
BEAUFORT MCAS  MOSUNNY   94  80  64 E5        30.06F HX 113
HILTON HEAD    MOSUNNY   90  79  70 SE6       30.08S HX 105

.........CENTRAL SC.........

CITY           SKY/WX    TMP DP  RH WIND       PRES   REMARKS
COLUMBIA       PTSUNNY   96  68  39 E8        30.06F HX 101
ORANGEBURG     SUNNY     93  68  43 VRB3      30.07F HX  97
SUMTER SHAW    SUNNY     95  67  40 E7        30.05F HX  99

.........WESTERN SC.........

CITY           SKY/WX    TMP DP  RH WIND       PRES   REMARKS
GREENVILLE     NOT AVBL
ROCK HILL      SUNNY     91  69  48 CALM      30.12F HX  96
ANDERSON       PTSUNNY   92  67  43 CALM      30.11F HX  95
CLEMSON        NOT AVBL
GREENWOOD      SUNNY     92  64  39 S5        30.11F HX  93


...................COASTAL AND OFFSHORE REPORTS..................

................LOCAL PIERS AND NC RESERVE................


STATION/POSITION TIME  SKY/WX   TEMP    WIND        PRES    VSBY
                                AIR SEA DIR/SP/G
                 (UTC)          (F)     (DEG/KT/KT) (MB)    (MI)
JOHNY MRCER PIER 1736            83 85   90/  7/  7 1018.1R
NC RESRV MASNBRO NOT AVBL
OCEAN CREST PIER NOT AVBL
SPRINGMAID  PIER 1736                               1018.0F


................COASTAL AND OFFSHORE BUOYS................


STATION/POSITION TIME  SKY/WX   TEMP    WIND        PRES    VSBY
                                AIR SEA DIR/SP/G
                 (UTC)          (F)     (DEG/KT/KT) (MB)    (MI)
DIMNDSHOAL 41025 1750            80 84  340/  4/  6 1019.3R
WVE H/P(F/S)=  3/ 9 SWL H/P/D(F/S/D)=  2/160/ 9

CAPE LOOKOUT     1800            81      90/  4/  4 1018.9S
ONSLOW BAY 41036 NOT AVBL
ONSLOW BAY 41064 1708            82 83  350/  2/  4 1019.5R
ONSLOW BAY 41159 1743               84                N/A
WVE H/P(F/S)=  3/ 8

MASNBO INL 41110 1729               84                N/A
WVE H/P(F/S)=  2/ 8

WILM HARBR 41108 1730               88                N/A
WVE H/P(F/S)=  3/ 8

27SE WRITB 41037 1708            83 83   80/  2/  6 1019.3R
FRYING PAN 41013 1750            84 85  110/  4/  6 1018.6F
WVE H/P(F/S)=  3/ 8 SWL H/P/D(F/S/D)=  3/120/ 8

SUNST NRSH 41024 1708            84 85  200/  2/  4 1018.8F
CAPRS NRSH 41029 1708            88 87  110/  6/  8 1018.6F
EDISTO     41004 1800            85 85  150/  2/  4 1018.4


..........OFFSHORE BUOYS BEYOND 100 NM OFFSHORE...........
.....IN A TRIANGLE---HAT TO BERMUDA TO BAHAMAS TO HAT.....


STATION/POSITION TIME  SKY/WX   TEMP    WIND        PRES    VSBY
                                AIR SEA DIR/SP/G
                 (UTC)          (F)     (DEG/KT/KT) (MB)    (MI)
150E HAT   41001 1800               82  230/  6/  8 1019.5
W BERMUDA  41048 1800            84 83  130/  2/  4 1021.8
ATLANTIC S 41049 1750            84 85  100/ 10/ 12 1021.9F
WVE H/P(F/S)=  7/ 8 SWL H/P/D(F/S/D)=  7/120/ 8

E BAHAMAS  41046 1800            82 84   90/ 17/ 23 1015.8
NE BAHAMAS 41047 1800            84 85  110/ 14/ 16 1020.0
120E CANVRL41010 1800            80 85  270/  6/  8 1019.0

END




USA.gov is the U.S. government's official web portal to all federal, state and local government web resources and services.